Weather Roundup
Issued by NWS Chicago, IL

Home | Current Version | Previous Version | Graphics & Text | Print | Product List | Glossary On
Versions: 1 2 3 4 5 6 7 8 9 10 11 12 13 14 15 16 17 18 19 20 21 22 23 24 25 26 27 28 29 30 31 32 33 34 35 36 37 38 39 40 41 42 43 44 45 46 47 48 49 50
000
NZUS59 KLOT 121103
HRRLOT

CHICAGO AREA WEATHER ROUNDUP
NATIONAL WEATHER SERVICE CHICAGO/ROMEOVILLE IL
500 AM CST FRI FEB 12 2016

NOTE: "FAIR" INDICATES FEW OR NO CLOUDS BELOW 12,000 FEET WITH NO
SIGNIFICANT WEATHER AND/OR OBSTRUCTIONS TO VISIBILITY.

* THESE STATIONS ARE NOT UNDER NWS QUALITY CONTROL. THEY ALSO MAY NOT
  REPORT WEATHER SUCH AS PRECIPITATION OR FOG.

ILZ005-006-012>014-019>023-121200-
NORTHEAST ILLINOIS

CITY           SKY/WX    TMP DP  RH WIND       PRES   REMARKS
OHARE          CLOUDY    19   7  59 W10       30.15S WCI   7
MIDWAY         MOCLDY    20   7  57 SW9       30.16F WCI   9
AURORA         CLEAR     16   9  74 W6        30.16F WCI   7
LANSING*       CLOUDY    19  11  71 SW5       30.16F WCI  12
WAUKEGAN       CLOUDY    18   6  59 W9G17     30.12S WCI   7
DUPAGE AIRPORT CLOUDY    15   6  67 W6        30.14F WCI   6
WHEELING       CLOUDY    20   7  57 W8        30.16F WCI  10
MORRIS*        CLOUDY    20  14  76 W6        30.16S WCI  13
$$

WIZ051-052-058>065-066-070>072-121200-
SOUTHEAST WISCONSIN

CITY           SKY/WX    TMP DP  RH WIND       PRES   REMARKS
MILWAUKEE      CLOUDY    18   4  54 W10       30.11F WCI   6
KENOSHA*       CLOUDY    18   7  62 W15       30.12F WCI   4
RACINE*        CLOUDY    18   5  57 W14       30.13S WCI   4
BURLINGTON     CLOUDY    16   6  64 W8        30.12F WCI   5
$$

INZ001>003-010>013-019-020-121200-
NORTHWEST INDIANA

CITY           SKY/WX    TMP DP  RH WIND       PRES   REMARKS
GARY*          CLOUDY    19  10  68 CALM      30.17F
MICHIGAN CITY* NOT AVBL
RENSSELAER*    NOT AVBL
VALPARAISO     CLOUDY    18  11  74 SW9       30.16F WCI   7
$$

LMZ740>746-121200-
SOUTHERN LAKE MICHIGAN

STATION/POSITION TIME  SKY/WX   TEMP WIND        PRES    VSBY
                                AIR  DIR/SP/G
                 (UTC)          (F)  (DEG/KT/KT) (MB)    (MI)
HARRISON CRIB    1000            22  260/ 15/ 17   N/A
BURNHAM HARBOR   1100            21  250/  9/ 13   N/A
CALUMET HARBOR   1000            20                N/A
BURNS HARBOR     1000            20  220/  9/ 13 1022.0F
MICHIGAN CITY    1000            19  190/ 12/ 13   N/A
$$

ABBREVIATIONS USED IN REMARKS
   TC - TEMPERATURE IN CELSIUS
  WCI - WIND CHILL INDEX
   HX - HEAT INDEX
  VSB - VISIBILITY
$$



USA.gov is the U.S. government's official web portal to all federal, state and local government web resources and services.